#datetime,building,power
2023-07-09T00:00:00,axn,30.15
2023-07-09T00:01:00,axn,28.22
2023-07-09T00:02:00,axn,28.80
2023-07-09T00:03:00,axn,28.61
2023-07-09T00:04:00,axn,28.73
2023-07-09T00:05:00,axn,29.26
2023-07-09T00:06:00,axn,28.78
2023-07-09T00:07:00,axn,29.11
2023-07-09T00:08:00,axn,29.04
2023-07-09T00:09:00,axn,28.87
2023-07-09T00:10:00,axn,28.84
2023-07-09T00:11:00,axn,29.10
2023-07-09T00:12:00,axn,28.88
2023-07-09T00:13:00,axn,28.89
2023-07-09T00:14:00,axn,28.90
2023-07-09T00:15:00,axn,29.04
2023-07-09T00:16:00,axn,28.94
2023-07-09T00:17:00,axn,28.82
2023-07-09T00:18:00,axn,28.79
2023-07-09T00:19:00,axn,28.92
2023-07-09T00:20:00,axn,29.04
2023-07-09T00:21:00,axn,29.13
2023-07-09T00:22:00,axn,29.00
2023-07-09T00:23:00,axn,29.00
2023-07-09T00:24:00,axn,28.95
2023-07-09T00:25:00,axn,29.07
2023-07-09T00:26:00,axn,29.22
2023-07-09T00:27:00,axn,29.31
2023-07-09T00:28:00,axn,28.68
2023-07-09T00:29:00,axn,43.87
2023-07-09T00:30:00,axn,42.87
2023-07-09T00:31:00,axn,42.92
2023-07-09T00:32:00,axn,42.71
2023-07-09T00:33:00,axn,42.58
2023-07-09T00:34:00,axn,28.17
2023-07-09T00:35:00,axn,28.25
2023-07-09T00:36:00,axn,27.96
2023-07-09T00:37:00,axn,27.82
2023-07-09T00:38:00,axn,27.67
2023-07-09T00:39:00,axn,27.75
2023-07-09T00:40:00,axn,27.79
2023-07-09T00:41:00,axn,27.95
2023-07-09T00:42:00,axn,27.74
2023-07-09T00:43:00,axn,30.70
2023-07-09T00:44:00,axn,41.64
2023-07-09T00:45:00,axn,41.15
2023-07-09T00:46:00,axn,38.28
2023-07-09T00:47:00,axn,38.30
2023-07-09T00:48:00,axn,32.58
2023-07-09T00:49:00,axn,27.23
2023-07-09T00:50:00,axn,27.18
2023-07-09T00:51:00,axn,27.13
2023-07-09T00:52:00,axn,27.00
2023-07-09T00:53:00,axn,27.17
2023-07-09T00:54:00,axn,26.32
2023-07-09T00:55:00,axn,26.24
2023-07-09T00:56:00,axn,26.35
2023-07-09T00:57:00,axn,31.04
2023-07-09T00:58:00,axn,31.04
2023-07-09T00:59:00,axn,31.26
2023-07-09T01:00:00,axn,26.46
2023-07-09T01:01:00,axn,26.41
2023-07-09T01:02:00,axn,26.39
2023-07-09T01:03:00,axn,26.61
2023-07-09T01:04:00,axn,26.53
2023-07-09T01:05:00,axn,28.59
2023-07-09T01:06:00,axn,28.58
2023-07-09T01:07:00,axn,28.60
2023-07-09T01:08:00,axn,26.34
2023-07-09T01:09:00,axn,26.27
2023-07-09T01:10:00,axn,26.19
2023-07-09T01:11:00,axn,26.16
2023-07-09T01:12:00,axn,25.97
2023-07-09T01:13:00,axn,26.14
2023-07-09T01:14:00,axn,26.17
2023-07-09T01:15:00,axn,26.40
2023-07-09T01:16:00,axn,26.36
2023-07-09T01:17:00,axn,26.34
2023-07-09T01:18:00,axn,26.17
2023-07-09T01:19:00,axn,26.16
2023-07-09T01:20:00,axn,26.27
2023-07-09T01:21:00,axn,26.34
2023-07-09T01:22:00,axn,26.44
2023-07-09T01:23:00,axn,26.43
2023-07-09T01:24:00,axn,26.54
2023-07-09T01:25:00,axn,26.35
2023-07-09T01:26:00,axn,26.21
2023-07-09T01:27:00,axn,26.22
2023-07-09T01:28:00,axn,26.19
2023-07-09T01:29:00,axn,26.23
2023-07-09T01:30:00,axn,26.26
2023-07-09T01:31:00,axn,26.36
2023-07-09T01:32:00,axn,26.92
2023-07-09T01:33:00,axn,26.23
2023-07-09T01:34:00,axn,26.31
2023-07-09T01:35:00,axn,26.07
2023-07-09T01:36:00,axn,26.04
2023-07-09T01:37:00,axn,26.10
2023-07-09T01:38:00,axn,26.26
2023-07-09T01:39:00,axn,26.31
2023-07-09T01:40:00,axn,26.19
2023-07-09T01:41:00,axn,26.21
2023-07-09T01:42:00,axn,26.17
2023-07-09T01:43:00,axn,26.23
2023-07-09T01:44:00,axn,26.60
2023-07-09T01:45:00,axn,26.32
2023-07-09T01:46:00,axn,26.38
2023-07-09T01:47:00,axn,26.58
2023-07-09T01:48:00,axn,26.24
2023-07-09T01:49:00,axn,26.31
2023-07-09T01:50:00,axn,26.35
2023-07-09T01:51:00,axn,26.33
2023-07-09T01:52:00,axn,26.43
2023-07-09T01:53:00,axn,26.27
2023-07-09T01:54:00,axn,26.12
2023-07-09T01:55:00,axn,26.32
2023-07-09T01:56:00,axn,26.33
2023-07-09T01:57:00,axn,26.76
2023-07-09T01:58:00,axn,26.32
2023-07-09T01:59:00,axn,26.28
2023-07-09T02:00:00,axn,26.20
2023-07-09T02:01:00,axn,26.14
2023-07-09T02:02:00,axn,26.15
2023-07-09T02:03:00,axn,25.98
2023-07-09T02:04:00,axn,26.13
2023-07-09T02:05:00,axn,26.00
2023-07-09T02:06:00,axn,26.09
2023-07-09T02:07:00,axn,26.05
2023-07-09T02:08:00,axn,26.08
2023-07-09T02:09:00,axn,26.07
2023-07-09T02:10:00,axn,26.12
2023-07-09T02:11:00,axn,26.37
2023-07-09T02:12:00,axn,26.66
2023-07-09T02:13:00,axn,26.74
2023-07-09T02:14:00,axn,26.72
2023-07-09T02:15:00,axn,26.67
2023-07-09T02:16:00,axn,26.71
2023-07-09T02:17:00,axn,26.85
2023-07-09T02:18:00,axn,26.68
2023-07-09T02:19:00,axn,26.53
2023-07-09T02:20:00,axn,26.56
2023-07-09T02:21:00,axn,26.69
2023-07-09T02:22:00,axn,26.61
2023-07-09T02:23:00,axn,26.56
2023-07-09T02:24:00,axn,26.53
2023-07-09T02:25:00,axn,26.60
2023-07-09T02:26:00,axn,26.54
2023-07-09T02:27:00,axn,26.64
2023-07-09T02:28:00,axn,26.45
2023-07-09T02:29:00,axn,26.55
2023-07-09T02:30:00,axn,26.66
2023-07-09T02:31:00,axn,26.67
2023-07-09T02:32:00,axn,32.45
2023-07-09T02:33:00,axn,32.63
2023-07-09T02:34:00,axn,32.33
2023-07-09T02:35:00,axn,26.73
2023-07-09T02:36:00,axn,26.77
2023-07-09T02:37:00,axn,26.89
2023-07-09T02:38:00,axn,26.79
2023-07-09T02:39:00,axn,26.64
2023-07-09T02:40:00,axn,26.66
2023-07-09T02:41:00,axn,26.78
2023-07-09T02:42:00,axn,26.67
2023-07-09T02:43:00,axn,26.64
2023-07-09T02:44:00,axn,26.77
2023-07-09T02:45:00,axn,26.98
2023-07-09T02:46:00,axn,27.30
2023-07-09T02:47:00,axn,26.96
2023-07-09T02:48:00,axn,26.92
2023-07-09T02:49:00,axn,26.97
2023-07-09T02:50:00,axn,27.25
2023-07-09T02:51:00,axn,27.00
2023-07-09T02:52:00,axn,27.00
2023-07-09T02:53:00,axn,26.98
2023-07-09T02:54:00,axn,26.87
2023-07-09T02:55:00,axn,26.75
2023-07-09T02:56:00,axn,26.82
2023-07-09T02:57:00,axn,26.92
2023-07-09T02:58:00,axn,27.01
2023-07-09T02:59:00,axn,26.89
2023-07-09T03:00:00,axn,26.99
2023-07-09T03:01:00,axn,27.26
2023-07-09T03:02:00,axn,27.34
2023-07-09T03:03:00,axn,27.22
2023-07-09T03:04:00,axn,27.40
2023-07-09T03:05:00,axn,27.29
2023-07-09T03:06:00,axn,27.30
2023-07-09T03:07:00,axn,27.22
2023-07-09T03:08:00,axn,27.24
2023-07-09T03:09:00,axn,27.11
2023-07-09T03:10:00,axn,27.24
2023-07-09T03:11:00,axn,27.28
2023-07-09T03:12:00,axn,27.33
2023-07-09T03:13:00,axn,27.25
2023-07-09T03:14:00,axn,27.31
2023-07-09T03:15:00,axn,27.20
2023-07-09T03:16:00,axn,27.47
2023-07-09T03:17:00,axn,28.08
2023-07-09T03:18:00,axn,27.73
2023-07-09T03:19:00,axn,27.55
2023-07-09T03:20:00,axn,27.53
2023-07-09T03:21:00,axn,27.50
2023-07-09T03:22:00,axn,27.53
2023-07-09T03:23:00,axn,27.45
2023-07-09T03:24:00,axn,27.48
2023-07-09T03:25:00,axn,27.38
2023-07-09T03:26:00,axn,30.36
2023-07-09T03:27:00,axn,30.30
2023-07-09T03:28:00,axn,27.45
2023-07-09T03:29:00,axn,27.40
2023-07-09T03:30:00,axn,27.43
2023-07-09T03:31:00,axn,27.50
2023-07-09T03:32:00,axn,27.41
2023-07-09T03:33:00,axn,27.64
2023-07-09T03:34:00,axn,27.46
2023-07-09T03:35:00,axn,27.39
2023-07-09T03:36:00,axn,27.70
2023-07-09T03:37:00,axn,27.64
2023-07-09T03:38:00,axn,27.65
2023-07-09T03:39:00,axn,27.69
2023-07-09T03:40:00,axn,27.65
2023-07-09T03:41:00,axn,27.60
2023-07-09T03:42:00,axn,27.48
2023-07-09T03:43:00,axn,27.59
2023-07-09T03:44:00,axn,27.59
2023-07-09T03:45:00,axn,27.74
2023-07-09T03:46:00,axn,27.77
2023-07-09T03:47:00,axn,27.80
2023-07-09T03:48:00,axn,27.86
2023-07-09T03:49:00,axn,28.11
2023-07-09T03:50:00,axn,27.51
2023-07-09T03:51:00,axn,27.62
2023-07-09T03:52:00,axn,27.73
2023-07-09T03:53:00,axn,27.78
2023-07-09T03:54:00,axn,27.73
2023-07-09T03:55:00,axn,28.14
2023-07-09T03:56:00,axn,27.70
2023-07-09T03:57:00,axn,27.56
2023-07-09T03:58:00,axn,27.54
2023-07-09T03:59:00,axn,27.57
2023-07-09T04:00:00,axn,27.82
2023-07-09T04:01:00,axn,27.62
2023-07-09T04:02:00,axn,27.61
2023-07-09T04:03:00,axn,27.74
2023-07-09T04:04:00,axn,27.76
2023-07-09T04:05:00,axn,27.68
2023-07-09T04:06:00,axn,27.98
2023-07-09T04:07:00,axn,28.05
2023-07-09T04:08:00,axn,27.78
2023-07-09T04:09:00,axn,27.57
2023-07-09T04:10:00,axn,27.43
2023-07-09T04:11:00,axn,27.52
2023-07-09T04:12:00,axn,27.45
2023-07-09T04:13:00,axn,27.68
2023-07-09T04:14:00,axn,27.73
2023-07-09T04:15:00,axn,27.74
2023-07-09T04:16:00,axn,27.61
2023-07-09T04:17:00,axn,27.75
2023-07-09T04:18:00,axn,27.79
2023-07-09T04:19:00,axn,27.76
2023-07-09T04:20:00,axn,27.94
2023-07-09T04:21:00,axn,27.99
2023-07-09T04:22:00,axn,28.08
2023-07-09T04:23:00,axn,28.15
2023-07-09T04:24:00,axn,28.06
2023-07-09T04:25:00,axn,28.11
2023-07-09T04:26:00,axn,28.06
2023-07-09T04:27:00,axn,28.27
2023-07-09T04:28:00,axn,27.97
2023-07-09T04:29:00,axn,28.06
2023-07-09T04:30:00,axn,27.76
2023-07-09T04:31:00,axn,27.75
2023-07-09T04:32:00,axn,27.69
2023-07-09T04:33:00,axn,27.80
2023-07-09T04:34:00,axn,30.49
2023-07-09T04:35:00,axn,30.37
2023-07-09T04:36:00,axn,30.44
2023-07-09T04:37:00,axn,27.68
2023-07-09T04:38:00,axn,27.35
2023-07-09T04:39:00,axn,27.80
2023-07-09T04:40:00,axn,27.73
2023-07-09T04:41:00,axn,27.62
2023-07-09T04:42:00,axn,27.57
2023-07-09T04:43:00,axn,27.57
2023-07-09T04:44:00,axn,27.56
2023-07-09T04:45:00,axn,27.65
2023-07-09T04:46:00,axn,27.67
2023-07-09T04:47:00,axn,27.82
2023-07-09T04:48:00,axn,27.70
2023-07-09T04:49:00,axn,28.11
2023-07-09T04:50:00,axn,28.20
2023-07-09T04:51:00,axn,27.66
2023-07-09T04:52:00,axn,27.83
2023-07-09T04:53:00,axn,27.70
2023-07-09T04:54:00,axn,27.80
2023-07-09T04:55:00,axn,27.94
2023-07-09T04:56:00,axn,27.62
2023-07-09T04:57:00,axn,28.14
2023-07-09T04:58:00,axn,27.60
2023-07-09T04:59:00,axn,27.66
2023-07-09T05:00:00,axn,27.50
2023-07-09T05:01:00,axn,27.43
2023-07-09T05:02:00,axn,27.30
2023-07-09T05:03:00,axn,27.20
2023-07-09T05:04:00,axn,27.23
2023-07-09T05:05:00,axn,27.08
2023-07-09T05:06:00,axn,26.89
2023-07-09T05:07:00,axn,26.96
2023-07-09T05:08:00,axn,27.26
2023-07-09T05:09:00,axn,27.15
2023-07-09T05:10:00,axn,27.03
2023-07-09T05:11:00,axn,26.99
2023-07-09T05:12:00,axn,26.93
2023-07-09T05:13:00,axn,26.86
2023-07-09T05:14:00,axn,27.27
2023-07-09T05:15:00,axn,27.09
2023-07-09T05:16:00,axn,26.97
2023-07-09T05:17:00,axn,27.14
2023-07-09T05:18:00,axn,27.40
2023-07-09T05:19:00,axn,27.08
2023-07-09T05:20:00,axn,27.05
2023-07-09T05:21:00,axn,27.02
2023-07-09T05:22:00,axn,26.85
2023-07-09T05:23:00,axn,27.03
2023-07-09T05:24:00,axn,27.04
2023-07-09T05:25:00,axn,27.13
2023-07-09T05:26:00,axn,27.09
2023-07-09T05:27:00,axn,27.06
2023-07-09T05:28:00,axn,27.63
2023-07-09T05:29:00,axn,27.62
2023-07-09T05:30:00,axn,27.55
2023-07-09T05:31:00,axn,29.71
2023-07-09T05:32:00,axn,29.62
2023-07-09T05:33:00,axn,29.41
2023-07-09T05:34:00,axn,29.36
2023-07-09T05:35:00,axn,29.47
2023-07-09T05:36:00,axn,29.55
2023-07-09T05:37:00,axn,29.70
2023-07-09T05:38:00,axn,29.57
2023-07-09T05:39:00,axn,30.01
2023-07-09T05:40:00,axn,29.69
2023-07-09T05:41:00,axn,29.62
2023-07-09T05:42:00,axn,29.71
2023-07-09T05:43:00,axn,29.62
2023-07-09T05:44:00,axn,29.70
2023-07-09T05:45:00,axn,29.59
2023-07-09T05:46:00,axn,29.47
2023-07-09T05:47:00,axn,29.45
2023-07-09T05:48:00,axn,29.25
2023-07-09T05:49:00,axn,29.23
2023-07-09T05:50:00,axn,29.29
2023-07-09T05:51:00,axn,29.21
2023-07-09T05:52:00,axn,29.25
2023-07-09T05:53:00,axn,29.27
2023-07-09T05:54:00,axn,29.38
2023-07-09T05:55:00,axn,29.42
2023-07-09T05:56:00,axn,29.50
2023-07-09T05:57:00,axn,29.43
2023-07-09T05:58:00,axn,29.42
2023-07-09T05:59:00,axn,29.53
2023-07-09T06:00:00,axn,29.62
2023-07-09T06:01:00,axn,29.87
2023-07-09T06:02:00,axn,29.76
2023-07-09T06:03:00,axn,29.79
2023-07-09T06:04:00,axn,30.24
2023-07-09T06:05:00,axn,29.64
2023-07-09T06:06:00,axn,29.73
2023-07-09T06:07:00,axn,29.74
2023-07-09T06:08:00,axn,29.95
2023-07-09T06:09:00,axn,30.29
2023-07-09T06:10:00,axn,40.08
2023-07-09T06:11:00,axn,29.66
2023-07-09T06:12:00,axn,29.55
2023-07-09T06:13:00,axn,29.62
2023-07-09T06:14:00,axn,27.27
2023-07-09T06:15:00,axn,27.39
2023-07-09T06:16:00,axn,27.30
2023-07-09T06:17:00,axn,27.18
2023-07-09T06:18:00,axn,27.34
2023-07-09T06:19:00,axn,27.47
2023-07-09T06:20:00,axn,26.85
2023-07-09T06:21:00,axn,27.15
2023-07-09T06:22:00,axn,27.09
2023-07-09T06:23:00,axn,27.11
2023-07-09T06:24:00,axn,27.10
2023-07-09T06:25:00,axn,27.08
2023-07-09T06:26:00,axn,27.10
2023-07-09T06:27:00,axn,27.17
2023-07-09T06:28:00,axn,27.14
2023-07-09T06:29:00,axn,27.26
2023-07-09T06:30:00,axn,27.41
2023-07-09T06:31:00,axn,27.48
2023-07-09T06:32:00,axn,27.38
2023-07-09T06:33:00,axn,27.49
2023-07-09T06:34:00,axn,27.14
2023-07-09T06:35:00,axn,32.09
2023-07-09T06:36:00,axn,26.95
2023-07-09T06:37:00,axn,27.13
2023-07-09T06:38:00,axn,27.02
2023-07-09T06:39:00,axn,27.07
2023-07-09T06:40:00,axn,27.12
2023-07-09T06:41:00,axn,27.09
2023-07-09T06:42:00,axn,26.92
2023-07-09T06:43:00,axn,26.89
2023-07-09T06:44:00,axn,26.89
2023-07-09T06:45:00,axn,26.94
2023-07-09T06:46:00,axn,26.88
2023-07-09T06:47:00,axn,26.90
2023-07-09T06:48:00,axn,26.96
2023-07-09T06:49:00,axn,27.09
2023-07-09T06:50:00,axn,26.94
2023-07-09T06:51:00,axn,26.96
2023-07-09T06:52:00,axn,26.92
2023-07-09T06:53:00,axn,27.18
2023-07-09T06:54:00,axn,26.78
2023-07-09T06:55:00,axn,26.83
2023-07-09T06:56:00,axn,26.78
2023-07-09T06:57:00,axn,26.67
2023-07-09T06:58:00,axn,26.64
2023-07-09T06:59:00,axn,26.67
2023-07-09T07:00:00,axn,26.69
2023-07-09T07:01:00,axn,29.65
2023-07-09T07:02:00,axn,33.91
2023-07-09T07:03:00,axn,33.11
2023-07-09T07:04:00,axn,32.30
2023-07-09T07:05:00,axn,32.72
2023-07-09T07:06:00,axn,33.88
2023-07-09T07:07:00,axn,34.71
2023-07-09T07:08:00,axn,34.76
2023-07-09T07:09:00,axn,35.11
2023-07-09T07:10:00,axn,34.89
2023-07-09T07:11:00,axn,34.60
2023-07-09T07:12:00,axn,34.60
2023-07-09T07:13:00,axn,34.51
2023-07-09T07:14:00,axn,34.88
2023-07-09T07:15:00,axn,34.79
2023-07-09T07:16:00,axn,34.36
2023-07-09T07:17:00,axn,34.00
2023-07-09T07:18:00,axn,34.44
2023-07-09T07:19:00,axn,34.11
2023-07-09T07:20:00,axn,33.82
2023-07-09T07:21:00,axn,34.00
2023-07-09T07:22:00,axn,34.07
2023-07-09T07:23:00,axn,34.38
2023-07-09T07:24:00,axn,34.13
2023-07-09T07:25:00,axn,33.59
2023-07-09T07:26:00,axn,33.87
2023-07-09T07:27:00,axn,33.98
2023-07-09T07:28:00,axn,33.82
2023-07-09T07:29:00,axn,34.09
2023-07-09T07:30:00,axn,34.09
2023-07-09T07:31:00,axn,34.19
2023-07-09T07:32:00,axn,34.33
2023-07-09T07:33:00,axn,34.25
2023-07-09T07:34:00,axn,34.50
2023-07-09T07:35:00,axn,34.51
2023-07-09T07:36:00,axn,33.97
2023-07-09T07:37:00,axn,34.05
2023-07-09T07:38:00,axn,34.26
2023-07-09T07:39:00,axn,34.75
2023-07-09T07:40:00,axn,34.24
2023-07-09T07:41:00,axn,36.78
2023-07-09T07:42:00,axn,34.36
2023-07-09T07:43:00,axn,34.24
2023-07-09T07:44:00,axn,34.09
2023-07-09T07:45:00,axn,34.16
2023-07-09T07:46:00,axn,34.16
2023-07-09T07:47:00,axn,34.81
2023-07-09T07:48:00,axn,34.51
2023-07-09T07:49:00,axn,44.29
2023-07-09T07:50:00,axn,33.91
2023-07-09T07:51:00,axn,33.74
2023-07-09T07:52:00,axn,33.65
2023-07-09T07:53:00,axn,33.52
2023-07-09T07:54:00,axn,33.42
2023-07-09T07:55:00,axn,33.30
2023-07-09T07:56:00,axn,32.98
2023-07-09T07:57:00,axn,33.33
2023-07-09T07:58:00,axn,33.10
2023-07-09T07:59:00,axn,33.65
2023-07-09T08:00:00,axn,33.03
2023-07-09T08:01:00,axn,32.93
2023-07-09T08:02:00,axn,32.78
2023-07-09T08:03:00,axn,33.29
2023-07-09T08:04:00,axn,50.58
2023-07-09T08:05:00,axn,33.43
2023-07-09T08:06:00,axn,33.40
2023-07-09T08:07:00,axn,33.27
2023-07-09T08:08:00,axn,33.24
2023-07-09T08:09:00,axn,33.35
2023-07-09T08:10:00,axn,34.25
2023-07-09T08:11:00,axn,34.66
2023-07-09T08:12:00,axn,34.37
2023-07-09T08:13:00,axn,34.09
2023-07-09T08:14:00,axn,34.13
2023-07-09T08:15:00,axn,34.60
2023-07-09T08:16:00,axn,34.35
2023-07-09T08:17:00,axn,34.38
2023-07-09T08:18:00,axn,34.48
2023-07-09T08:19:00,axn,34.95
2023-07-09T08:20:00,axn,34.62
2023-07-09T08:21:00,axn,34.47
2023-07-09T08:22:00,axn,37.50
2023-07-09T08:23:00,axn,38.03
2023-07-09T08:24:00,axn,37.88
2023-07-09T08:25:00,axn,34.75
2023-07-09T08:26:00,axn,34.40
2023-07-09T08:27:00,axn,34.35
2023-07-09T08:28:00,axn,34.57
2023-07-09T08:29:00,axn,38.69
2023-07-09T08:30:00,axn,38.72
2023-07-09T08:31:00,axn,39.02
2023-07-09T08:32:00,axn,34.19
2023-07-09T08:33:00,axn,34.17
2023-07-09T08:34:00,axn,34.42
2023-07-09T08:35:00,axn,34.51
2023-07-09T08:36:00,axn,34.63
2023-07-09T08:37:00,axn,34.90
2023-07-09T08:38:00,axn,34.54
2023-07-09T08:39:00,axn,34.44
2023-07-09T08:40:00,axn,34.54
2023-07-09T08:41:00,axn,34.40
2023-07-09T08:42:00,axn,35.57
2023-07-09T08:43:00,axn,35.48
2023-07-09T08:44:00,axn,35.32
2023-07-09T08:45:00,axn,35.47
2023-07-09T08:46:00,axn,35.52
2023-07-09T08:47:00,axn,36.05
2023-07-09T08:48:00,axn,35.70
2023-07-09T08:49:00,axn,50.64
2023-07-09T08:50:00,axn,34.98
2023-07-09T08:51:00,axn,35.10
2023-07-09T08:52:00,axn,35.09
2023-07-09T08:53:00,axn,35.05
2023-07-09T08:54:00,axn,34.99
2023-07-09T08:55:00,axn,35.03
2023-07-09T08:56:00,axn,35.05
2023-07-09T08:57:00,axn,35.03
2023-07-09T08:58:00,axn,34.66
2023-07-09T08:59:00,axn,34.76
2023-07-09T09:00:00,axn,35.00
2023-07-09T09:01:00,axn,35.45
2023-07-09T09:02:00,axn,35.12
2023-07-09T09:03:00,axn,35.29
2023-07-09T09:04:00,axn,35.53
2023-07-09T09:05:00,axn,35.22
2023-07-09T09:06:00,axn,35.50
2023-07-09T09:07:00,axn,35.53
2023-07-09T09:08:00,axn,48.34
2023-07-09T09:09:00,axn,35.51
2023-07-09T09:10:00,axn,35.54
2023-07-09T09:11:00,axn,35.94
2023-07-09T09:12:00,axn,35.93
2023-07-09T09:13:00,axn,35.65
2023-07-09T09:14:00,axn,35.44
2023-07-09T09:15:00,axn,35.53
2023-07-09T09:16:00,axn,35.65
2023-07-09T09:17:00,axn,35.70
2023-07-09T09:18:00,axn,35.74
2023-07-09T09:19:00,axn,35.33
2023-07-09T09:20:00,axn,35.47
2023-07-09T09:21:00,axn,35.23
2023-07-09T09:22:00,axn,35.58
2023-07-09T09:23:00,axn,35.19
2023-07-09T09:24:00,axn,35.61
2023-07-09T09:25:00,axn,34.89
2023-07-09T09:26:00,axn,34.77
2023-07-09T09:27:00,axn,35.06
2023-07-09T09:28:00,axn,35.10
2023-07-09T09:29:00,axn,35.09
2023-07-09T09:30:00,axn,35.04
2023-07-09T09:31:00,axn,34.68
2023-07-09T09:32:00,axn,34.97
2023-07-09T09:33:00,axn,35.04
2023-07-09T09:34:00,axn,34.90
2023-07-09T09:35:00,axn,34.98
2023-07-09T09:36:00,axn,35.16
2023-07-09T09:37:00,axn,35.51
2023-07-09T09:38:00,axn,35.25
2023-07-09T09:39:00,axn,35.29
2023-07-09T09:40:00,axn,34.85
2023-07-09T09:41:00,axn,34.76
2023-07-09T09:42:00,axn,34.92
2023-07-09T09:43:00,axn,34.90
2023-07-09T09:44:00,axn,35.19
2023-07-09T09:45:00,axn,35.27
2023-07-09T09:46:00,axn,34.77
2023-07-09T09:47:00,axn,35.04
2023-07-09T09:48:00,axn,34.65
2023-07-09T09:49:00,axn,34.51
2023-07-09T09:50:00,axn,34.59
2023-07-09T09:51:00,axn,34.51
2023-07-09T09:52:00,axn,34.66
2023-07-09T09:53:00,axn,34.42
2023-07-09T09:54:00,axn,34.47
2023-07-09T09:55:00,axn,34.51
2023-07-09T09:56:00,axn,34.54
2023-07-09T09:57:00,axn,34.47
2023-07-09T09:58:00,axn,34.33
2023-07-09T09:59:00,axn,34.52
2023-07-09T10:00:00,axn,34.63
2023-07-09T10:01:00,axn,34.90
2023-07-09T10:02:00,axn,36.69
2023-07-09T10:03:00,axn,34.78
2023-07-09T10:04:00,axn,40.64
2023-07-09T10:05:00,axn,40.48
2023-07-09T10:06:00,axn,40.49
2023-07-09T10:07:00,axn,40.39
2023-07-09T10:08:00,axn,34.66
2023-07-09T10:09:00,axn,48.51
2023-07-09T10:10:00,axn,48.38
2023-07-09T10:11:00,axn,48.21
2023-07-09T10:12:00,axn,48.13
2023-07-09T10:13:00,axn,48.19
2023-07-09T10:14:00,axn,34.57
2023-07-09T10:15:00,axn,34.48
2023-07-09T10:16:00,axn,34.47
2023-07-09T10:17:00,axn,34.26
2023-07-09T10:18:00,axn,34.40
2023-07-09T10:19:00,axn,35.47
2023-07-09T10:20:00,axn,34.46
2023-07-09T10:21:00,axn,34.30
2023-07-09T10:22:00,axn,34.30
2023-07-09T10:23:00,axn,34.50
2023-07-09T10:24:00,axn,34.71
2023-07-09T10:25:00,axn,35.13
2023-07-09T10:26:00,axn,34.45
2023-07-09T10:27:00,axn,34.83
2023-07-09T10:28:00,axn,34.70
2023-07-09T10:29:00,axn,34.92
2023-07-09T10:30:00,axn,34.63
2023-07-09T10:31:00,axn,34.76
2023-07-09T10:32:00,axn,34.62
2023-07-09T10:33:00,axn,34.68
2023-07-09T10:34:00,axn,34.33
2023-07-09T10:35:00,axn,34.31
2023-07-09T10:36:00,axn,34.89
2023-07-09T10:37:00,axn,35.06
2023-07-09T10:38:00,axn,35.02
2023-07-09T10:39:00,axn,35.89
2023-07-09T10:40:00,axn,34.84
2023-07-09T10:41:00,axn,34.45
2023-07-09T10:42:00,axn,36.71
2023-07-09T10:43:00,axn,37.13
2023-07-09T10:44:00,axn,36.74
2023-07-09T10:45:00,axn,36.59
2023-07-09T10:46:00,axn,36.88
2023-07-09T10:47:00,axn,37.17
2023-07-09T10:48:00,axn,37.46
2023-07-09T10:49:00,axn,37.60
2023-07-09T10:50:00,axn,37.64
2023-07-09T10:51:00,axn,37.09
2023-07-09T10:52:00,axn,37.28
2023-07-09T10:53:00,axn,37.42
2023-07-09T10:54:00,axn,37.63
2023-07-09T10:55:00,axn,37.68
2023-07-09T10:56:00,axn,40.55
2023-07-09T10:57:00,axn,40.15
2023-07-09T10:58:00,axn,37.17
2023-07-09T10:59:00,axn,37.31
2023-07-09T11:00:00,axn,37.36
2023-07-09T11:01:00,axn,37.41
2023-07-09T11:02:00,axn,37.51
2023-07-09T11:03:00,axn,37.29
2023-07-09T11:04:00,axn,37.41
2023-07-09T11:05:00,axn,37.52
2023-07-09T11:06:00,axn,37.04
2023-07-09T11:07:00,axn,37.02
2023-07-09T11:08:00,axn,36.98
2023-07-09T11:09:00,axn,36.99
2023-07-09T11:10:00,axn,37.07
2023-07-09T11:11:00,axn,36.90
2023-07-09T11:12:00,axn,37.27
2023-07-09T11:13:00,axn,37.43
2023-07-09T11:14:00,axn,37.41
2023-07-09T11:15:00,axn,37.23
2023-07-09T11:16:00,axn,37.12
2023-07-09T11:17:00,axn,37.00
2023-07-09T11:18:00,axn,37.25
2023-07-09T11:19:00,axn,36.88
2023-07-09T11:20:00,axn,36.90
2023-07-09T11:21:00,axn,37.02
2023-07-09T11:22:00,axn,36.98
2023-07-09T11:23:00,axn,37.01
2023-07-09T11:24:00,axn,37.35
2023-07-09T11:25:00,axn,37.50
2023-07-09T11:26:00,axn,37.43
2023-07-09T11:27:00,axn,37.66
2023-07-09T11:28:00,axn,37.51
2023-07-09T11:29:00,axn,37.64
2023-07-09T11:30:00,axn,37.79
2023-07-09T11:31:00,axn,37.74
2023-07-09T11:32:00,axn,37.85
2023-07-09T11:33:00,axn,37.88
2023-07-09T11:34:00,axn,37.91
2023-07-09T11:35:00,axn,37.91
2023-07-09T11:36:00,axn,37.91
2023-07-09T11:37:00,axn,38.06
2023-07-09T11:38:00,axn,38.13
2023-07-09T11:39:00,axn,38.49
2023-07-09T11:40:00,axn,37.84
2023-07-09T11:41:00,axn,37.95
2023-07-09T11:42:00,axn,37.88
2023-07-09T11:43:00,axn,37.94
2023-07-09T11:44:00,axn,37.62
2023-07-09T11:45:00,axn,37.31
2023-07-09T11:46:00,axn,37.61
2023-07-09T11:47:00,axn,37.92
2023-07-09T11:48:00,axn,37.81
2023-07-09T11:49:00,axn,38.87
2023-07-09T11:50:00,axn,37.44
2023-07-09T11:51:00,axn,37.58
2023-07-09T11:52:00,axn,35.16
2023-07-09T11:53:00,axn,35.34
2023-07-09T11:54:00,axn,35.29
2023-07-09T11:55:00,axn,35.31
2023-07-09T11:56:00,axn,35.43
2023-07-09T11:57:00,axn,35.22
2023-07-09T11:58:00,axn,35.41
2023-07-09T11:59:00,axn,35.19
2023-07-09T12:00:00,axn,35.19
2023-07-09T12:01:00,axn,35.08
2023-07-09T12:02:00,axn,38.32
2023-07-09T12:03:00,axn,38.08
2023-07-09T12:04:00,axn,38.58
2023-07-09T12:05:00,axn,35.73
2023-07-09T12:06:00,axn,35.81
2023-07-09T12:07:00,axn,35.78
2023-07-09T12:08:00,axn,35.50
2023-07-09T12:09:00,axn,35.62
2023-07-09T12:10:00,axn,35.20
2023-07-09T12:11:00,axn,35.43
2023-07-09T12:12:00,axn,35.56
2023-07-09T12:13:00,axn,35.45
2023-07-09T12:14:00,axn,35.59
2023-07-09T12:15:00,axn,35.62
2023-07-09T12:16:00,axn,35.47
2023-07-09T12:17:00,axn,35.26
2023-07-09T12:18:00,axn,35.24
2023-07-09T12:19:00,axn,35.05
2023-07-09T12:20:00,axn,34.32
2023-07-09T12:21:00,axn,34.99
2023-07-09T12:22:00,axn,35.06
2023-07-09T12:23:00,axn,35.19
2023-07-09T12:24:00,axn,35.32
2023-07-09T12:25:00,axn,35.44
2023-07-09T12:26:00,axn,35.50
2023-07-09T12:27:00,axn,35.45
2023-07-09T12:28:00,axn,35.34
2023-07-09T12:29:00,axn,35.30
2023-07-09T12:30:00,axn,35.38
2023-07-09T12:31:00,axn,35.24
2023-07-09T12:32:00,axn,35.44
2023-07-09T12:33:00,axn,35.48
2023-07-09T12:34:00,axn,35.21
2023-07-09T12:35:00,axn,35.35
2023-07-09T12:36:00,axn,35.39
2023-07-09T12:37:00,axn,35.20
2023-07-09T12:38:00,axn,35.01
2023-07-09T12:39:00,axn,35.02
2023-07-09T12:40:00,axn,34.95
2023-07-09T12:41:00,axn,35.65
2023-07-09T12:42:00,axn,34.59
2023-07-09T12:43:00,axn,34.16
2023-07-09T12:44:00,axn,33.89
2023-07-09T12:45:00,axn,34.09
2023-07-09T12:46:00,axn,34.16
2023-07-09T12:47:00,axn,34.35
2023-07-09T12:48:00,axn,34.40
2023-07-09T12:49:00,axn,33.89
2023-07-09T12:50:00,axn,33.75
2023-07-09T12:51:00,axn,33.91
2023-07-09T12:52:00,axn,33.84
2023-07-09T12:53:00,axn,33.93
2023-07-09T12:54:00,axn,34.03
2023-07-09T12:55:00,axn,33.92
2023-07-09T12:56:00,axn,33.86
2023-07-09T12:57:00,axn,33.67
2023-07-09T12:58:00,axn,33.77
2023-07-09T12:59:00,axn,33.99
2023-07-09T13:00:00,axn,33.55
2023-07-09T13:01:00,axn,33.86
2023-07-09T13:02:00,axn,33.52
2023-07-09T13:03:00,axn,33.82
2023-07-09T13:04:00,axn,33.89
2023-07-09T13:05:00,axn,34.36
2023-07-09T13:06:00,axn,34.30
2023-07-09T13:07:00,axn,33.85
2023-07-09T13:08:00,axn,34.18
2023-07-09T13:09:00,axn,33.92
2023-07-09T13:10:00,axn,33.61
2023-07-09T13:11:00,axn,33.76
2023-07-09T13:12:00,axn,34.33
2023-07-09T13:13:00,axn,34.61
2023-07-09T13:14:00,axn,33.70
2023-07-09T13:15:00,axn,33.70
2023-07-09T13:16:00,axn,33.48
2023-07-09T13:17:00,axn,33.66
2023-07-09T13:18:00,axn,33.93